Regional Weather Roundup
Issued by NWS Boston, MA

Home | Current Version | Previous Version | Text Only | Print | Product List | Glossary On
Versions: 1 2 3 4 5 6 7 8 9 10 11 12 13 14 15 16 17 18 19 20 21 22 23 24 25 26 27 28 29 30 31 32 33 34 35 36 37 38 39 40 41 42 43 44 45 46 47 48 49 50
893
ASUS41 KBOX 170410
RWRBOX

REGIONAL WEATHER ROUNDUP
NATIONAL WEATHER SERVICE TAUNTON MA
1100 PM EST SAT DEC 16 2017

NOTE:  "FAIR" INDICATES FEW OR NO CLOUDS BELOW 12,000 FEET WITH NO
SIGNIFICANT WEATHER AND/OR OBSTRUCTIONS TO VISIBILITY.

MAZALL-170500-
EASTERN MASSACHUSETTS

CITY           SKY/WX    TMP DP  RH WIND       PRES   REMARKS
BOSTON         CLEAR     26  12  55 NW10      30.16R WCI  16
BEVERLY        CLEAR     23  16  74 NW5       30.14R WCI  17
LAWRENCE       CLEAR     24  15  68 NW5       30.16R WCI  18
BEDFORD        CLEAR     21  11  65 W7        30.14R WCI  12
BLUE HILL        N/A     22  14  71 W12       30.11R WCI  10
NORWOOD        CLEAR     25  15  66 W8        30.16R WCI  16
MARSHFIELD     CLEAR     27  14  59 VRB6G12   30.15R WCI  20
PLYMOUTH       CLEAR     24  15  68 W3        30.15R
TAUNTON        CLEAR     24  16  71 W3        30.16R
NEW BEDFORD    CLEAR     26  14  60 NW7       30.15R WCI  18
$$

MAZALL-170500-
CAPE COD AND THE ISLANDS

CITY           SKY/WX    TMP DP  RH WIND       PRES   REMARKS
FALMOUTH       CLEAR     25  16  68 NW8       30.16R WCI  16
HYANNIS        CLEAR     27  15  61 W7        30.13R WCI  19
CHATHAM        MOCLDY    30  14  51 NW9G17    30.13R WCI  22
PROVINCETOWN   PTCLDY    30  15  53 NW20G26   30.14R WCI  17
NANTUCKET      CLEAR     30  17  58 NW20G26   30.14R WCI  17
MARTHAS VNYRD  CLEAR    N/A N/A N/A NW18G28   30.15R
$$

MAZALL-170500-
CENTRAL AND WESTERN MASSACHUSETTS

CITY           SKY/WX    TMP DP  RH WIND       PRES   REMARKS
WORCESTER      CLEAR     20   5  52 W14       30.09R WCI   7
FITCHBURG      CLEAR     20  13  74 CALM      30.15R
ORANGE         NOT AVBL
SPRINGFIELD    CLEAR     22  11  61 NW12      30.16R WCI  11
WESTFIELD      PTCLDY    22  13  68 CALM      30.17R
NORTH ADAMS    CLEAR     18  10  71 W7        30.15R WCI   9
PITTSFIELD     CLEAR     18  11  74 W3        30.10S
$$

RIZALL-170500-
RHODE ISLAND

CITY           SKY/WX    TMP DP  RH WIND       PRES   REMARKS
PROVIDENCE     CLEAR     26  15  63 W8        30.18R WCI  18
NEWPORT        CLEAR     28  16  60 NW10      30.16R WCI  19
BLOCK ISLAND   CLEAR     29  18  63 N14G20    30.18R WCI  18
SMITHFIELD     CLEAR     22  13  68 W6        30.15R WCI  14
WESTERLY       CLEAR     28  17  63 N6        30.19R WCI  22
$$

CTZALL-170500-
CONNECTICUT

CITY           SKY/WX    TMP DP  RH WIND       PRES   REMARKS
BRADLEY INTL   PTCLDY    22  12  65 CALM      30.19R
HARTFORD       CLEAR     27  12  53 N7        30.21R WCI  19
BRIDGEPORT     CLOUDY    31  18  58 N9        30.21R WCI  23
DANBURY        CLEAR     27  16  63 N5        30.19R WCI  22
GROTON         CLEAR     29  12  49 N12G20    30.19R WCI  19
NEW HAVEN      CLEAR     29  16  58 N6        30.20R WCI  23
CHESTER        FAIR      27  12  54 NW8       30.17R WCI  18
MERIDEN        CLEAR     26  12  55 NW5       30.20R WCI  20
WILLIMANTIC    PTCLDY    26  13  57 VRB7      30.19R WCI  18
OXFORD         CLEAR     21  13  71 N6        30.17R WCI  13
$$

MEZ002-015-021-024-NHZ003-005-008-011-012-014-VTZ005-008-170500-
NORTHERN NEW ENGLAND

CITY           SKY/WX    TMP DP  RH WIND       PRES   REMARKS
PORTLAND ME    CLEAR     18   7  62 NW9       30.12R WCI   7
BANGOR ME      CLEAR     15  10  80 NW5       30.06R WCI   8
CONCORD NH     CLEAR     17   8  67 N8        30.14R WCI   7
MANCHESTER NH  CLEAR     20   9  62 NW7       30.13R WCI  11
NASHUA NH      CLEAR     16  11  80 NW5       30.16R WCI   9
PORTSMOUTH NH  CLEAR     20   8  58 W9        30.12R WCI   9
JAFFREY NH     CLEAR     17   8  67 VRB5      30.09R WCI  10
KEENE NH       CLEAR      9   6  88 CALM      30.16R
BURLINGTON VT  PTCLDY    14   5  67 N5        30.21R WCI   6
MT. WASHINGTON DRFTSNOW  -6  -6 100 NW31        N/A  VSB 0   WCI -34
$$

NYZ052-076-170500-
EASTERN NEW YORK

CITY           SKY/WX    TMP DP  RH WIND       PRES   REMARKS
ALBANY         PTCLDY    15  12  88 N3        30.20S
NEW YORK CITY  CLOUDY    36  23  59 N10       30.20R WCI  28
$$

ANZALL-170500-
MARINE OBSERVATIONS

STATION/POSITION TIME  TEMP    WIND        PRES    VSBY  WAVE
                       AIR SEA DIR/SP/G                  HT/PER
                 (UTC) (F)     (DEG/KT/KT) (MB)    (MI)  (FT/S)
BOSTON BUOY      0350   31 47  310/ 17/ 21 1019.7R         3/ 4
BUZZARDS BAY     0300   31     320/ 19/ 22 1021.1R
NANTUCKET SOUND  0350   31 42  320/ 21/ 27 1020.2R         3/ 4
MASS BAY-STELLWA 0304   29 46  320/ 19/ 25 1019.2R         2/ 4
ISLE OF SHOALS   0300   26     310/ 20/ 23 1019.0R
S OF BLOCK IS    0343      52                N/A           7/ 8
$$

......................KEY.........................
  SKY/WX - SKY CONDITION/PRESENT WEATHER
  TMP    - TEMPERATURE IN FAHRENHEIT
  DWPT   - DEWPOINT IN FAHRENHEIT
  RH     - RELATIVE HUMIDITY IN PERCENT
  WIND   - DIRECTION AND SPEED IN MPH
  PRES   - MEAN SEA LEVEL PRESSURE IN INCHES OF HG
  WCI    - WIND CHILL INDEX
  VSB    - VISIBILITY IN MILES
  HX     - HEAT INDEX
  TC     - TEMPERATURE IN CELSIUS
  VRB    - VARIABLE WIND DIRECTION
  N/A    - NOT AVAILABLE




USA.gov is the U.S. government's official web portal to all federal, state and local government web resources and services.